Theta_e
321 318 318 315 317 316 314 312 315 315 314 314 315 317 317 322 325 329 331 338 340 342 342 344 346 349 348 349 350 352 350 349 350 349 349 348 347 346 344 342 341 340 339
320 319 318 315 317 317 315 312 314 313 313 313 313 314 313 316 318 322 328 325 334 340 343 343 344 345 347 349 349 351 351 348 348 348 347 347 348 347 346 344 343 343 341
320 318 318 317 319 318 315 315 316 314 314 314 313 313 312 312 316 318 319 318 323 331 336 344 342 346 347 348 348 348 349 347 348 349 348 347 346 347 347 347 345 345 344
321 319 318 318 320 317 317 320 318 317 315 313 313 312 313 313 313 313 315 316 321 322 327 339 342 342 344 345 345 347 349 350 348 347 347 348 346 346 348 347 347 346 344
319 316 313 313 316 315 314 316 314 314 313 314 316 313 314 311 311 315 313 314 316 320 329 336 337 338 338 338 341 344 348 347 348 348 348 348 348 346 347 347 347 345 344
316 311 311 311 312 313 312 312 310 312 315 314 315 313 310 311 311 310 311 314 313 320 329 329 326 327 335 337 338 341 342 347 346 347 347 347 347 347 347 347 345 344 343
314 311 310 310 310 310 310 310 309 309 309 309 307 306 308 308 309 309 308 309 318 323 325 326 327 328 330 336 337 338 339 339 341 348 345 343 345 346 347 346 345 343 342
313 314 310 310 309 309 309 309 308 307 308 309 306 306 299 302 306 309 308 314 311 319 323 323 323 324 327 328 329 337 341 341 342 343 345 343 343 345 345 344 343 342 342
313 312 311 310 309 307 306 306 307 306 306 311 310 303 297 296 301 305 308 309 309 314 316 316 320 323 324 326 328 331 334 335 335 338 337 339 343 343 344 342 341 340 338
311 311 310 309 307 307 306 306 310 308 311 305 303 309 305 305 298 297 304 307 309 313 312 314 317 323 325 326 329 331 332 335 334 334 336 335 339 343 343 341 339 335 333
308 309 309 307 306 309 311 307 306 306 307 303 301 301 305 303 303 302 299 301 306 309 311 313 317 321 324 322 320 325 329 327 329 330 329 335 339 344 339 335 332 331 330
305 307 308 307 307 306 308 310 309 307 307 307 307 306 305 303 299 300 299 299 300 306 315 316 317 320 321 323 327 328 327 327 327 328 328 329 331 334 334 333 332 330 329
304 305 309 309 309 309 309 310 308 307 306 306 307 307 306 305 306 302 301 300 300 304 312 316 317 318 319 321 322 324 324 324 324 324 325 326 327 327 328 327 327 326 325
307 307 310 310 310 311 309 308 306 306 305 305 306 307 307 306 306 305 301 300 299 302 308 311 317 317 317 318 322 321 318 318 318 318 318 320 321 321 321 321 322 321 320
306 308 309 309 309 309 306 307 306 306 306 305 305 306 307 307 307 306 305 304 302 301 303 308 310 312 313 314 316 314 315 318 316 315 315 315 315 315 316 316 315 315 315
307 308 308 308 308 308 308 307 306 307 306 305 306 305 305 307 307 306 306 307 308 307 303 307 311 311 313 313 315 312 313 314 314 313 313 312 312 312 312 312 312 312 311
307 307 307 307 307 306 307 306 306 306 306 305 306 305 306 306 304 307 309 309 308 309 305 308 310 311 310 309 308 309 310 309 310 312 311 310 310 309 309 309 309 309 309
306 307 307 306 306 306 307 306 306 307 306 305 305 305 305 309 304 306 309 309 310 309 308 305 306 306 305 307 307 306 307 308 306 309 308 307 307 306 305 305 305 304 304
306 306 306 306 306 306 306 307 306 306 307 305 305 305 304 307 306 307 310 310 310 311 309 306 303 305 304 305 304 305 304 305 306 309 307 307 306 305 304 303 302 301 301
306 303 306 307 307 307 307 307 307 306 305 305 304 302 308 307 308 310 311 311 310 309 308 305 303 303 303 304 303 302 301 303 302 304 304 304 304 304 304 303 303 302 301
306 306 306 307 307 306 307 306 307 304 303 301 301 308 309 311 313 312 310 309 309 309 307 305 303 301 300 300 300 301 299 300 300 300 294 292 293 292 295 300 302 302 301
306 306 306 306 305 306 304 306 306 304 302 300 304 307 308 310 310 312 313 312 311 309 307 306 303 300 300 300 301 300 299 298 295 302 292 291 291 290 292 293 300 300 300
305 305 305 306 304 304 302 303 305 303 299 299 302 304 307 308 307 307 310 311 310 309 310 309 304 303 301 303 303 299 299 297 295 299 294 292 291 288 290 294 300 300 300
305 305 305 305 303 303 302 301 302 298 300 301 302 301 302 303 302 303 304 307 310 310 309 311 308 307 307 306 304 303 303 301 299 301 301 290 291 288 288 289 300 299 299
304 305 303 302 302 300 300 299 300 304 306 305 305 302 303 303 302 302 305 305 307 308 308 307 305 304 302 303 306 305 300 298 298 298 299 294 293 290 289 288 290 299 298
303 304 303 304 303 298 297 296 299 302 304 303 303 299 298 299 299 301 304 307 305 307 307 307 306 304 305 305 306 306 303 299 299 297 298 296 293 292 290 291 290 290 289
Wind_Speed
4 4 4 2 3 2 1 2 3 3 2 1 1 2 4 4 5 2 3 10 11 12 11 15 16 16 13 7 9 15 18 19 20 21 19 18 18 18 17 16 15 14 13
4 4 4 4 4 3 3 3 4 2 3 3 4 5 3 5 6 6 3 4 13 11 9 9 9 13 16 12 11 10 14 17 22 23 22 21 20 19 18 18 17 16 15
5 4 4 4 4 3 4 3 1 3 3 3 5 2 5 3 4 7 8 6 5 11 13 9 9 12 12 13 11 11 13 15 21 22 22 22 22 20 19 18 19 18 17
7 6 4 4 4 3 3 2 2 1 1 4 2 5 3 4 5 5 5 6 6 4 7 9 9 7 9 11 10 10 12 12 15 20 22 21 22 21 20 19 19 17 16
5 5 4 4 4 4 3 2 2 2 3 2 4 1 4 4 5 4 6 6 7 7 2 4 9 8 5 5 8 11 13 10 12 14 19 20 21 22 20 20 18 17 17
3 2 3 5 5 4 5 3 3 2 3 2 4 2 4 4 5 4 6 5 5 5 3 3 2 4 9 10 11 17 16 13 11 12 14 17 21 21 22 20 18 16 15
4 4 3 4 4 4 5 5 3 3 2 1 2 4 4 5 6 4 3 4 5 3 4 3 2 2 3 11 9 16 11 11 13 11 12 15 19 22 21 20 16 15 12
5 4 4 5 6 4 4 2 0 1 2 1 2 1 4 5 4 3 3 3 6 3 4 4 3 4 4 3 6 12 9 4 5 9 9 10 16 20 21 21 16 13 15
5 4 5 4 6 4 4 3 2 2 2 1 1 3 2 4 3 4 4 3 5 3 3 3 3 3 4 4 6 4 4 5 6 9 12 10 10 18 20 20 20 24 22
5 6 5 4 5 4 5 4 1 1 2 3 2 1 2 2 3 4 3 5 4 3 3 3 4 5 6 4 7 10 14 12 12 16 16 17 10 14 18 26 31 28 25
6 6 5 6 5 4 4 4 2 1 2 2 3 2 2 2 3 4 3 4 3 2 3 3 3 3 4 3 4 8 14 16 15 17 22 26 9 20 16 23 34 25 25
4 6 6 5 5 5 5 3 1 3 3 3 3 4 4 3 3 3 1 3 3 2 2 2 2 3 4 3 6 11 12 13 13 17 21 26 35 21 32 27 26 22 21
4 6 6 4 3 4 5 3 3 4 5 5 6 5 4 5 3 3 3 3 2 1 0 2 2 3 4 5 10 19 24 21 18 20 20 24 28 24 24 21 21 19 18
5 6 5 5 5 5 3 4 4 5 5 5 6 4 4 5 4 4 4 4 3 2 1 1 2 2 3 1 13 20 15 28 26 24 24 23 28 22 21 20 22 20 17
5 6 6 6 6 5 6 6 5 7 5 5 5 6 5 3 4 5 4 4 3 3 2 1 2 3 4 6 12 10 11 23 25 24 25 26 25 22 21 20 18 17 15
6 7 6 6 7 7 6 6 7 5 5 4 4 5 5 4 5 5 5 5 6 5 2 1 2 2 5 6 12 10 13 19 22 22 26 23 22 19 18 16 15 16 13
7 7 7 6 7 7 6 6 7 6 7 5 4 5 6 6 5 4 4 6 6 6 4 2 3 5 5 8 9 9 8 8 11 21 23 24 21 19 17 16 15 13 12
7 7 6 7 7 7 7 7 7 5 5 4 5 5 7 5 5 5 5 7 7 4 8 11 6 4 7 9 9 9 8 8 9 18 21 21 20 18 16 15 15 12 10
7 7 6 7 7 7 6 5 5 6 3 4 5 5 6 4 5 6 6 7 6 6 7 10 8 6 6 7 10 8 8 10 9 18 19 21 18 17 16 13 14 12 10
7 6 7 7 6 6 5 4 6 1 3 4 5 5 3 4 8 1 3 11 10 10 9 10 9 8 7 6 6 7 8 7 7 8 15 15 14 17 15 13 14 11 11
6 6 7 6 5 4 3 3 3 2 3 5 5 4 4 8 9 5 4 9 10 9 10 10 8 9 8 7 7 4 7 6 6 5 5 5 6 6 7 11 11 11 9
7 7 6 5 4 3 5 4 1 3 4 4 4 2 2 4 8 8 3 7 9 12 11 8 9 10 9 8 7 6 7 7 5 3 3 5 5 4 3 4 12 11 9
6 7 5 4 4 4 5 3 2 2 3 4 3 3 2 2 4 3 6 12 11 11 7 13 13 11 11 8 9 8 4 3 3 3 6 6 3 4 4 5 13 13 14
6 6 4 4 3 3 6 4 3 3 3 3 2 2 3 3 3 5 7 7 6 7 6 5 10 12 11 8 9 7 5 6 7 4 2 3 2 3 2 4 12 15 16
7 3 2 3 3 3 5 6 3 3 4 6 6 6 4 3 3 7 7 9 8 7 9 12 14 16 15 11 8 9 8 10 5 1 2 4 0 2 3 3 4 11 14
5 2 3 3 4 3 7 7 4 2 5 4 5 6 14 6 7 8 8 9 9 9 10 9 8 11 12 10 9 5 8 7 4 3 2 4 1 3 3 2 3 4 4
Wind_Direction
297 313 303 304 292 315 339 242 190 198 169 134 25 10 338 316 315 301 283 305 294 288 286 274 269 257 243 253 250 221 223 218 218 212 206 207 206 207 207 208 206 206 203
304 333 337 344 328 340 329 308 305 331 351 349 338 338 345 315 317 317 293 296 303 305 293 283 290 285 280 276 284 254 234 227 224 222 212 206 204 207 209 208 209 206 203
29 16 7 360 343 340 344 338 334 347 358 349 320 349 314 323 330 324 320 310 289 297 305 300 313 307 310 280 272 283 255 235 232 221 215 209 204 203 207 209 210 209 199
38 39 26 358 338 348 343 348 339 317 213 317 305 314 320 314 309 298 301 306 307 273 282 294 306 7 7 343 283 267 270 244 235 230 223 212 208 204 204 210 212 212 209
47 33 359 326 330 317 303 288 292 275 296 315 298 317 323 321 309 317 293 287 296 296 268 285 331 350 350 330 304 267 246 237 231 226 224 214 211 208 203 209 214 215 216
29 354 307 317 325 309 292 280 269 269 257 263 299 333 301 289 283 292 285 286 284 273 235 79 336 336 326 318 307 301 280 258 250 231 226 221 210 205 205 205 208 215 215
2 350 342 344 337 311 281 281 273 265 278 342 13 336 310 303 301 312 297 298 304 317 76 64 55 355 339 321 300 282 303 283 284 266 244 228 216 214 206 203 199 203 191
352 354 356 334 320 311 326 314 246 311 289 317 174 118 310 318 333 299 303 335 347 356 71 25 48 22 349 304 302 320 320 12 354 345 303 254 226 213 210 203 189 176 154
339 329 307 311 307 303 298 296 271 198 275 4 302 176 311 260 325 322 316 331 338 344 4 345 27 16 14 342 318 324 347 59 42 49 25 348 287 238 214 201 160 141 130
313 315 311 309 301 294 292 276 216 231 214 241 326 117 247 226 251 312 319 335 352 10 357 348 7 20 35 39 55 87 54 69 70 63 53 34 316 238 221 188 140 127 123
306 293 285 295 291 284 280 262 291 256 235 211 199 221 237 262 266 234 284 317 341 40 7 18 353 23 52 42 35 72 85 78 84 74 61 49 23 193 116 132 111 119 118
280 282 275 266 286 293 275 274 318 281 268 243 227 212 206 201 217 252 214 252 254 334 49 51 40 13 8 1 103 86 81 89 80 84 79 72 75 71 106 93 104 115 124
276 275 271 286 275 270 245 246 265 261 260 255 251 241 210 215 197 215 232 207 241 258 73 55 47 54 26 56 78 81 77 75 77 76 78 85 85 83 80 97 101 108 112
271 287 287 282 274 264 247 259 255 260 252 250 260 249 237 222 208 208 210 156 230 225 125 143 40 58 78 279 93 83 85 82 75 76 74 75 80 89 90 92 88 92 93
286 287 295 287 288 259 259 252 269 262 245 247 251 251 239 230 223 223 220 181 190 178 193 126 132 27 83 81 88 76 77 87 88 84 79 73 76 76 74 75 87 93 94
282 289 290 286 287 276 265 265 270 252 249 247 252 259 257 241 236 221 213 211 209 227 157 134 103 110 106 96 96 88 90 89 93 92 92 89 87 88 94 96 97 99 105
296 294 286 289 296 295 282 271 269 258 256 255 254 260 266 248 244 224 214 211 205 198 159 111 91 96 95 95 83 76 77 84 90 95 97 98 95 94 95 97 96 93 93
299 299 293 298 293 288 290 279 282 278 268 279 278 277 274 265 233 230 238 197 195 165 151 127 110 97 84 89 91 93 86 83 86 86 87 90 91 90 87 81 81 81 83
301 306 296 291 294 292 291 286 282 283 272 279 284 282 268 263 266 271 208 173 140 123 130 120 114 109 93 90 93 87 93 92 87 81 74 77 82 86 85 87 87 90 87
300 299 299 297 298 299 294 312 302 316 313 290 294 280 316 321 283 112 91 143 128 123 122 113 115 108 105 93 91 95 84 71 71 58 65 72 76 79 85 82 79 92 95
297 294 303 304 306 306 298 347 331 5 356 328 318 350 345 352 44 52 45 108 118 118 126 120 112 114 112 118 116 92 91 87 52 46 67 57 69 51 48 63 74 81 96
306 305 308 312 322 315 350 356 71 325 337 347 350 4 15 21 42 66 124 131 124 134 129 120 123 129 127 126 122 131 128 121 102 40 92 76 63 49 23 47 64 60 62
308 304 307 326 329 323 25 61 48 329 345 353 338 30 83 83 49 38 92 112 95 77 122 134 134 144 145 149 147 136 138 86 97 123 94 74 24 66 11 21 40 42 44
307 304 317 2 2 26 77 59 45 326 325 11 40 62 89 104 92 97 88 96 98 89 91 110 133 142 141 146 144 145 125 110 99 81 102 93 6 36 344 26 29 41 39
317 319 350 39 71 47 59 35 15 39 39 48 51 38 56 96 122 116 91 94 96 89 96 95 104 116 121 124 130 130 128 129 127 126 16 107 68 69 31 17 359 43 47
304 332 65 67 88 57 15 22 35 70 69 54 46 41 40 37 96 92 104 123 123 130 121 110 103 103 129 141 136 118 135 131 120 91 270 93 109 104 44 359 12 18 12